Middleton, WI

2:51 PM CDT on June 22, 2017 (GMT -0500)
Middleton

Weather History for KC29 - December, 2012

Change the Weather History Date:

Saturday, December 1, 2012

  Actual Average (KMSN) Record (KMSN)
Temperature  
Mean Temperature 46 °F -  
Max Temperature 55 °F 34 °F 62 °F (1970)
Min Temperature 36 °F 20 °F -11 °F (1893)
Degree Days  
Heating Degree Days 20    
Moisture  
Dew Point 43 °F    
Average Humidity 89    
Maximum Humidity 97    
Minimum Humidity 76    
Precipitation  
Precipitation 0.00 in - - ()
Sea Level Pressure  
Sea Level Pressure 29.95 in    
Wind  
Wind Speed 7 mph (SSE)    
Max Wind Speed 10 mph    
Max Gust Speed -    
Visibility 4 miles    
Events      
Averages and records for this station are not official NWS values.
T = Trace of Precipitation, MM = Missing Value Source: NWS Daily Summary

Daily Weather History Graph

Daily Weather History Graph

Search for Another Location

Airport or City:

Trip Planner

Search our weather history database for the weather conditions in past years. The results will help you decide how hot, cold, wet, or windy it might be!

Date:

Astronomy

Dec. 01, 2012 Rise Set
Actual Time 7:10 AM CST 4:24 PM CST
Civil Twilight 6:38 AM CST 4:55 PM CST
Nautical Twilight 6:03 AM CST 5:31 PM CST
Astronomical Twilight 5:28 AM CST 6:05 PM CST
Moon 7:15 PM CST (12/1) 9:22 AM CST (12/1)
Length of Visible Light 10h 17m
Length of Day
9h 13m
Waning Gibbous, 91% of the Moon is Illuminated
Dec 1
Waning Gibbous
Dec 6
Last Quarter
Dec 13
New
Dec 19
First Quarter
Dec 28
Full

Hourly Weather History & Observations

Time (CST) Temp. Windchill Dew Point Humidity Pressure Visibility Wind Dir Wind Speed Gust Speed Precip Events Conditions
12:15 AM 39.4 °F 34.5 °F 34.0 °F 81% 30.13 in 7.0 mi ESE 6.9 mph - N/A   Overcast
12:35 AM 39.2 °F 33.6 °F 34.0 °F 82% 30.12 in 7.0 mi ESE 8.1 mph - N/A   Overcast
1:15 AM 39.4 °F 35.2 °F 34.2 °F 82% 30.14 in 5.0 mi SE 5.8 mph - N/A   Overcast
1:35 AM 39.4 °F 34.5 °F 34.2 °F 82% 30.15 in 5.0 mi SE 6.9 mph - N/A   Overcast
1:55 AM 39.2 °F 34.2 °F 34.0 °F 82% 30.14 in 5.0 mi SE 6.9 mph - N/A   Overcast
2:15 AM 39.2 °F 33.6 °F 34.2 °F 82% 30.12 in 5.0 mi ESE 8.1 mph - N/A   Overcast
2:55 AM 38.8 °F 33.2 °F 34.3 °F 84% 30.10 in 5.0 mi SE 8.1 mph - N/A   Overcast
3:15 AM 38.5 °F 34.1 °F 34.3 °F 85% 30.11 in 4.0 mi SE 5.8 mph - N/A   Overcast
3:35 AM 38.3 °F - 34.3 °F 86% 30.11 in 4.0 mi Calm Calm - N/A   Overcast
3:55 AM 36.7 °F 32.0 °F 34.3 °F 91% 30.09 in 3.0 mi SE 5.8 mph - N/A   Overcast
4:15 AM 37.4 °F 34.9 °F 35.2 °F 92% 30.09 in 3.0 mi SE 3.5 mph - N/A   Overcast
4:35 AM 37.4 °F 33.8 °F 35.6 °F 93% 30.09 in 3.0 mi ESE 4.6 mph - N/A   Overcast
4:55 AM 38.3 °F 32.5 °F 36.1 °F 92% 30.08 in 3.0 mi East 8.1 mph - N/A   Overcast
5:15 AM 37.9 °F 33.5 °F 36.1 °F 93% 30.07 in 3.0 mi SE 5.8 mph - N/A   Overcast
5:35 AM 38.1 °F 32.9 °F 36.5 °F 94% 30.07 in 2.5 mi ESE 6.9 mph - N/A   Overcast
5:55 AM 38.3 °F 33.2 °F 36.7 °F 94% 30.07 in 2.0 mi ESE 6.9 mph - N/A   Overcast
6:35 AM 38.3 °F 31.9 °F 37.4 °F 97% 30.05 in 1.5 mi ESE 9.2 mph - N/A   Overcast
7:15 AM 39.4 °F 34.5 °F 38.5 °F 97% 30.05 in 0.5 mi SE 6.9 mph - N/A   Overcast
7:35 AM 39.9 °F 35.1 °F 39.0 °F 97% 30.05 in 0.5 mi SE 6.9 mph - N/A   Overcast
7:55 AM 40.3 °F 36.3 °F 39.4 °F 97% 30.05 in 1.0 mi SE 5.8 mph - N/A   Overcast
8:15 AM 41.0 °F 36.4 °F 40.1 °F 97% 30.04 in 1.5 mi SE 6.9 mph - N/A   Overcast
8:35 AM 41.4 °F 36.8 °F 39.9 °F 95% 30.03 in 1.8 mi SE 6.9 mph - N/A   Overcast
8:55 AM 41.4 °F 36.8 °F 39.6 °F 93% 30.03 in 2.0 mi SE 6.9 mph - N/A   Overcast
9:15 AM 41.9 °F 36.9 °F 39.7 °F 92% 30.02 in 2.0 mi SE 8.1 mph - N/A   Overcast
9:35 AM 41.7 °F 38.8 °F 39.4 °F 91% 30.02 in 2.5 mi ESE 4.6 mph - N/A   Overcast
9:55 AM 42.6 °F 38.4 °F 39.6 °F 89% 30.01 in 3.0 mi SE 6.9 mph - N/A   Overcast
10:15 AM 43.0 °F 38.8 °F 39.4 °F 87% 30.00 in 4.0 mi SE 6.9 mph - N/A   Overcast
10:35 AM 43.7 °F 40.3 °F 39.2 °F 84% 29.99 in 4.0 mi SSE 5.8 mph - N/A   Overcast
10:55 AM 44.6 °F 41.4 °F 39.4 °F 82% 29.97 in 5.0 mi SE 5.8 mph - N/A   Overcast
11:15 AM 46.4 °F 42.9 °F 40.1 °F 79% 29.96 in 5.0 mi SSE 6.9 mph - N/A   Overcast
11:35 AM 46.2 °F 43.3 °F 40.3 °F 80% 29.94 in 7.0 mi SE 5.8 mph - N/A   Overcast
11:55 AM 47.3 °F - 41.0 °F 79% 29.92 in 7.0 mi SSE 6.9 mph - N/A   Overcast
12:15 PM 48.2 °F - 41.2 °F 77% 29.90 in 7.0 mi SE 8.1 mph - N/A   Overcast
12:35 PM 48.7 °F - 42.1 °F 78% 29.92 in 7.0 mi SSW 10.4 mph - N/A   Overcast
12:55 PM 48.2 °F - 41.0 °F 76% 29.92 in 7.0 mi South 6.9 mph - N/A   Overcast
1:15 PM 47.7 °F - 40.6 °F 77% 29.90 in 7.0 mi South 8.1 mph - N/A   Overcast
1:35 PM 47.7 °F - 41.0 °F 78% 29.89 in 7.0 mi South 6.9 mph - N/A   Overcast
1:55 PM 47.8 °F - 41.4 °F 78% 29.88 in 7.0 mi South 8.1 mph - N/A   Overcast
2:15 PM 47.7 °F - 42.8 °F 83% 29.88 in 5.0 mi South 6.9 mph - N/A   Overcast
2:35 PM 47.7 °F - 44.6 °F 89% 29.87 in 5.0 mi South 5.8 mph - N/A   Overcast
2:55 PM 47.7 °F - 45.5 °F 92% 29.87 in 3.0 mi SSW 5.8 mph - N/A   Overcast
3:15 PM 47.8 °F - 45.7 °F 92% 29.87 in 3.0 mi South 6.9 mph - N/A   Overcast
3:55 PM 48.4 °F - 46.8 °F 94% 29.86 in 2.0 mi South 4.6 mph - N/A   Overcast
4:15 PM 49.1 °F - 47.5 °F 94% 29.85 in 2.0 mi South 8.1 mph - N/A   Overcast
4:35 PM 49.3 °F - 47.8 °F 95% 29.85 in 2.0 mi SSW 6.9 mph - N/A   Overcast
4:55 PM 49.5 °F - 48.2 °F 95% 29.85 in 2.5 mi South 6.9 mph - N/A   Overcast
5:15 PM 50.0 °F - 48.6 °F 95% 29.85 in 2.5 mi SSW 8.1 mph - N/A   Overcast
5:55 PM 50.9 °F - 49.5 °F 95% 29.85 in 2.5 mi SSW 5.8 mph - N/A   Overcast
6:15 PM 51.3 °F - 50.0 °F 95% 29.84 in 2.0 mi SSW 6.9 mph - N/A   Overcast
6:35 PM 51.8 °F - 50.5 °F 95% 29.84 in 1.8 mi SSW 4.6 mph - N/A   Overcast
6:55 PM 52.7 °F - 51.4 °F 95% 29.84 in 2.0 mi SW 8.1 mph - N/A   Overcast
7:15 PM 53.2 °F - 52.0 °F 95% 29.84 in 2.0 mi SW 8.1 mph - N/A   Overcast
7:35 PM 54.0 °F - 52.7 °F 95% 29.84 in 2.5 mi SW 4.6 mph - N/A   Overcast
7:55 PM 54.5 °F - 53.2 °F 96% 29.84 in 3.0 mi SW 5.8 mph - N/A   Overcast
8:15 PM 55.0 °F - 53.6 °F 95% 29.84 in 4.0 mi SSW 9.2 mph - N/A   Overcast
8:35 PM 55.4 °F - 53.6 °F 94% 29.84 in 5.0 mi SSW 8.1 mph - N/A   Overcast
8:55 PM 55.4 °F - 53.4 °F 93% 29.84 in 5.0 mi SW 9.2 mph - N/A   Overcast
9:15 PM 55.4 °F - 53.2 °F 92% 29.84 in 5.0 mi SW 6.9 mph - N/A   Overcast
9:35 PM 55.4 °F - 53.4 °F 93% 29.84 in 5.0 mi SW 5.8 mph - N/A   Overcast
9:55 PM 55.4 °F - 53.2 °F 92% 29.84 in 5.0 mi SW 5.8 mph - N/A   Overcast
10:15 PM 55.4 °F - 53.1 °F 92% 29.83 in 5.0 mi SW 6.9 mph - N/A   Overcast
10:35 PM 55.2 °F - 53.2 °F 93% 29.83 in 5.0 mi SW 5.8 mph - N/A   Overcast
10:55 PM 55.4 °F - 53.2 °F 92% 29.83 in 5.0 mi SW 6.9 mph - N/A   Overcast
11:15 PM 54.9 °F - 52.7 °F 92% 29.83 in 5.0 mi SSW 8.1 mph - N/A   Overcast
11:35 PM 55.4 °F - 53.2 °F 92% 29.83 in 5.0 mi SW 8.1 mph - N/A   Overcast
11:55 PM 55.4 °F - 53.6 °F 94% 29.83 in 5.0 mi SW 9.2 mph - N/A   Overcast